Wind_Speed
4 4 4 4 4 5 6 7 8 8 9 10 11 11 12 12 13 13 13 13 12 12 12 11 10 9 9 8 8 8 8 7 6 6 6 6 5 5 4 4 3 2 3
5 5 6 6 6 7 7 8 9 10 10 11 11 12 12 13 13 14 14 14 13 13 13 12 11 11 10 10 9 9 8 8 8 7 7 6 6 5 5 4 3 3 3
6 6 7 8 8 8 9 9 10 10 11 11 12 12 13 13 14 14 14 14 14 14 13 13 12 12 11 11 10 10 10 9 9 8 8 7 7 6 6 5 4 4 3
8 8 8 9 9 9 10 11 11 11 12 12 12 12 13 13 14 14 14 14 14 14 13 13 13 13 12 12 12 11 11 10 10 9 8 8 8 7 6 6 5 5 5
10 10 10 10 11 11 11 12 12 13 13 13 13 13 13 14 14 15 15 15 14 14 14 14 14 14 13 13 13 12 12 11 11 10 9 9 8 7 7 7 6 6 6
12 12 12 12 12 12 13 13 13 14 14 14 14 14 15 15 15 16 16 15 15 15 15 15 15 15 15 14 14 13 13 12 12 12 11 11 10 9 9 8 8 8 7
12 13 13 13 13 13 14 14 15 15 15 15 15 16 16 16 16 17 17 16 16 16 16 16 16 16 16 16 15 15 14 14 14 14 13 12 12 11 10 9 9 9 9
12 13 14 14 14 15 15 16 16 15 15 16 16 16 16 16 17 17 17 17 16 16 16 17 17 17 17 17 17 16 16 15 15 15 14 14 14 13 12 11 10 10 9
13 14 14 14 15 16 16 17 16 16 16 17 17 17 17 18 18 18 18 17 17 17 17 18 18 18 19 18 18 18 17 17 17 16 16 16 15 15 14 12 11 11 11
15 15 16 16 16 17 17 17 17 17 18 18 18 18 18 19 19 19 18 19 18 18 18 18 18 19 20 20 19 19 19 19 19 18 17 17 17 15 15 14 13 13 13
16 16 17 17 17 18 18 18 18 17 18 19 19 19 19 20 20 20 19 20 19 19 19 20 20 20 20 20 20 20 20 20 19 19 18 18 18 18 17 16 15 15 14
16 17 18 18 19 19 19 19 19 19 19 20 19 20 21 21 20 20 20 19 19 20 20 20 21 21 21 21 21 21 21 21 21 21 21 20 20 19 17 17 17 16 16
17 18 19 19 19 20 20 19 19 20 21 21 21 22 22 22 21 21 20 20 20 21 21 21 21 21 21 21 22 22 21 21 22 22 23 22 21 21 19 17 17 17 16
19 19 19 20 21 20 21 20 21 21 22 23 23 23 22 22 22 22 22 22 21 21 21 22 22 22 22 21 22 21 21 22 22 22 24 23 23 22 20 19 18 19 19
19 20 20 21 22 22 21 21 22 22 22 22 22 22 22 23 23 23 23 23 23 23 23 22 23 23 23 23 23 23 22 23 22 23 24 23 23 23 23 21 21 21 20
20 20 21 22 22 22 22 22 21 21 22 22 22 22 22 23 24 24 24 25 24 24 23 23 23 23 23 23 23 23 23 23 23 23 23 24 24 24 24 24 23 22 22
21 21 22 22 22 22 22 23 22 21 21 22 22 23 23 24 24 24 24 25 25 24 24 24 24 24 24 24 24 24 24 24 24 24 24 24 24 25 25 25 24 25 25
22 22 21 21 23 23 23 23 24 23 22 22 23 24 25 26 26 26 25 25 25 25 25 25 26 26 26 26 26 25 25 26 26 25 25 26 26 26 26 26 26 26 26
21 22 22 23 23 24 24 23 24 24 24 24 25 26 26 26 26 26 25 25 25 25 25 26 27 27 28 27 27 27 27 27 27 27 27 26 26 27 27 27 27 27 26
22 22 23 24 23 23 23 24 25 26 26 25 25 26 27 27 28 28 26 26 26 26 27 27 28 28 29 28 28 28 29 29 29 28 29 28 27 27 28 28 28 28 28
23 23 24 24 24 24 24 25 26 27 26 26 26 27 28 28 27 28 28 28 28 28 29 29 29 28 29 29 28 29 30 30 30 30 30 30 29 28 28 28 28 29 29
24 25 25 25 26 26 26 26 27 28 27 28 28 29 29 29 29 30 29 28 28 29 29 30 30 29 29 29 29 29 29 30 30 30 30 30 30 29 29 28 28 29 29
24 25 25 25 26 26 26 27 27 28 28 29 29 30 30 30 30 29 29 29 29 30 29 28 28 28 29 29 29 30 29 29 30 30 30 30 30 30 30 30 29 30 30
24 25 25 26 26 27 27 27 28 28 29 29 30 31 31 31 31 30 30 30 30 29 29 29 29 29 28 29 29 30 30 30 30 30 30 30 30 30 30 31 31 31 31
26 25 25 26 26 27 27 28 28 28 29 30 31 31 31 31 31 30 30 30 30 29 29 29 29 30 29 29 30 31 30 30 30 30 30 30 31 31 32 32 31 31 32
24 25 26 26 26 26 27 27 28 29 29 30 30 30 30 30 30 29 29 29 29 30 29 28 29 29 29 29 29 30 30 30 30 31 31 31 31 31 32 32 31 31 32
Wind_Direction
320 320 320 318 320 314 310 309 308 305 306 306 307 306 305 305 304 304 304 304 304 304 302 300 299 297 295 295 295 295 296 298 299 298 294 291 288 285 286 288 277 265 253
312 316 314 310 310 308 305 304 303 301 302 302 302 302 301 302 302 302 302 301 302 302 301 298 298 295 294 294 294 294 294 297 297 297 293 289 289 287 285 283 280 274 260
302 307 309 306 305 304 302 300 298 299 299 299 299 299 299 300 300 300 299 299 298 297 296 296 295 293 293 294 294 294 294 296 298 299 295 287 285 283 282 280 276 273 268
296 302 305 304 303 302 300 297 296 295 296 296 295 296 297 297 297 298 298 296 294 292 291 291 291 291 291 293 294 294 294 293 295 297 295 290 284 281 280 278 271 269 266
293 297 298 300 300 300 299 297 294 293 293 294 294 293 292 293 293 293 294 293 290 287 285 286 287 287 288 289 290 291 292 292 291 291 290 291 281 277 273 275 270 268 266
290 295 298 297 297 297 297 296 294 291 292 292 292 291 290 290 291 290 290 289 287 283 282 282 282 283 284 285 285 286 288 288 287 287 286 286 281 275 270 270 269 267 266
290 294 296 293 293 296 297 296 294 291 290 291 291 290 289 288 289 288 287 286 284 282 280 280 279 280 281 282 282 283 284 284 283 283 281 281 280 276 270 269 270 267 266
289 295 294 294 296 296 296 295 294 290 289 291 290 289 289 287 286 286 284 282 281 281 280 279 279 277 277 279 280 280 280 281 282 280 277 276 276 274 269 267 270 270 265
288 292 296 295 295 294 295 295 293 291 290 291 292 290 288 287 285 284 282 280 278 278 279 279 277 277 277 278 279 279 278 277 277 277 275 275 276 274 268 263 267 270 267
287 287 290 293 293 292 292 292 292 292 292 292 291 290 289 287 285 282 280 279 278 279 279 278 278 277 278 277 277 278 276 274 274 274 274 273 273 273 269 266 265 266 265
287 287 288 290 290 290 289 289 290 291 292 294 292 291 290 287 284 282 279 279 279 279 278 278 279 277 277 276 276 276 274 273 272 271 271 270 271 270 269 266 264 264 263
285 286 287 288 286 286 287 287 288 289 289 292 292 289 289 286 282 280 278 279 279 279 279 278 278 278 277 276 276 275 274 273 271 270 271 271 269 266 265 264 263 263 263
284 286 286 285 283 283 283 284 286 287 286 288 289 288 286 283 280 279 278 279 278 278 278 277 277 279 278 276 276 277 273 273 271 271 271 270 267 266 264 260 262 261 261
283 286 286 286 284 284 282 281 284 286 287 286 286 286 283 282 280 278 278 279 277 276 275 275 275 276 275 275 275 275 275 270 271 271 271 269 266 265 263 261 261 260 258
284 286 285 287 286 286 284 283 285 286 289 287 287 285 282 280 278 276 275 275 276 276 277 276 276 276 275 274 274 274 274 272 272 272 272 268 265 261 261 262 260 260 259
284 285 284 289 286 285 285 284 284 285 287 287 285 284 284 283 279 277 276 275 275 276 276 274 274 273 274 274 274 272 273 272 273 273 271 270 266 263 260 260 262 260 258
285 285 285 286 285 284 286 286 286 286 286 285 284 284 288 288 283 280 280 279 275 274 275 275 273 272 272 272 272 271 271 272 273 271 268 268 265 263 261 260 261 259 258
286 286 287 288 288 287 288 287 288 287 287 288 286 285 288 288 285 281 280 281 277 275 273 273 275 273 272 272 271 271 270 270 272 270 268 268 263 262 261 259 260 260 257
291 289 286 287 288 287 286 285 285 286 287 288 289 288 289 287 284 281 280 280 279 277 275 275 275 274 272 271 270 270 271 270 270 269 268 268 264 261 260 260 259 258 256
295 292 290 287 288 287 287 287 287 287 286 286 288 288 288 286 284 282 282 280 279 278 278 276 275 274 272 271 270 270 271 270 268 267 266 266 264 260 258 258 257 256 254
292 292 292 289 291 290 289 289 289 289 287 286 287 287 286 286 286 283 284 283 280 279 278 277 274 274 274 272 271 270 270 268 268 267 266 265 264 260 257 256 255 254 253
290 290 290 289 290 291 290 289 289 288 287 288 288 287 286 287 287 284 283 284 282 280 279 276 274 273 274 273 272 271 269 268 268 267 266 265 264 262 258 256 254 253 252
288 289 291 290 289 289 288 287 287 287 287 287 287 286 287 287 287 284 282 283 284 281 279 278 275 274 274 274 273 271 270 267 266 266 267 265 263 261 259 255 253 252 251
293 292 292 291 290 289 288 288 287 287 288 288 288 287 287 287 287 286 283 283 284 283 281 279 277 276 275 275 274 272 271 269 266 265 265 264 263 260 259 256 252 250 250
297 294 293 293 292 290 289 288 288 288 289 290 290 289 288 288 288 286 284 283 283 283 281 279 278 276 275 274 273 273 273 271 268 267 264 263 262 258 257 256 253 251 251
299 296 294 294 293 291 290 289 288 288 289 290 290 290 289 289 289 287 286 285 285 283 280 278 278 276 275 275 275 273 272 270 269 268 265 263 261 258 256 255 254 252 251
Height
5913 5912 5912 5911 5910 5910 5909 5909 5908 5908 5907 5906 5905 5904 5903 5902 5901 5900 5899 5898 5897 5896 5895 5894 5892 5891 5890 5889 5888 5887 5886 5885 5884 5884 5883 5882 5881 5880 5880 5879 5878 5878 5877
5912 5911 5911 5910 5910 5909 5909 5908 5907 5907 5906 5905 5904 5903 5902 5901 5900 5899 5898 5897 5895 5894 5893 5892 5891 5890 5889 5888 5887 5886 5885 5884 5883 5882 5882 5881 5880 5880 5879 5878 5878 5877 5876
5911 5911 5910 5910 5909 5908 5907 5907 5906 5905 5904 5904 5903 5902 5901 5900 5899 5897 5896 5895 5894 5893 5892 5891 5890 5888 5887 5887 5886 5885 5884 5883 5882 5881 5880 5880 5879 5878 5878 5877 5877 5876 5876
5910 5910 5909 5908 5908 5907 5906 5905 5905 5904 5903 5902 5901 5900 5899 5898 5897 5896 5895 5893 5892 5891 5890 5889 5888 5887 5886 5885 5884 5884 5883 5882 5881 5880 5879 5878 5877 5877 5877 5876 5876 5876 5875
5909 5908 5907 5907 5906 5905 5904 5904 5903 5902 5901 5900 5899 5898 5897 5896 5895 5894 5893 5892 5890 5889 5888 5887 5886 5885 5884 5883 5882 5882 5881 5880 5879 5878 5878 5877 5876 5875 5875 5875 5875 5875 5874
5907 5906 5905 5905 5904 5903 5902 5902 5901 5900 5899 5898 5897 5896 5895 5894 5893 5892 5891 5889 5888 5887 5886 5885 5884 5883 5882 5881 5880 5880 5879 5878 5878 5877 5876 5875 5875 5874 5874 5874 5873 5873 5873
5905 5904 5903 5902 5901 5901 5900 5899 5898 5897 5896 5895 5894 5893 5892 5891 5890 5889 5888 5887 5886 5885 5884 5883 5882 5881 5880 5879 5878 5877 5877 5876 5876 5875 5874 5874 5873 5873 5872 5872 5872 5871 5871
5903 5902 5901 5900 5899 5899 5898 5897 5896 5895 5894 5893 5891 5890 5889 5888 5887 5886 5885 5884 5883 5882 5881 5880 5879 5878 5877 5876 5875 5875 5874 5874 5873 5873 5872 5871 5871 5870 5870 5870 5870 5869 5869
5900 5899 5897 5897 5897 5896 5895 5894 5893 5892 5891 5889 5888 5887 5886 5884 5883 5882 5881 5880 5880 5879 5878 5877 5876 5875 5874 5873 5872 5872 5871 5871 5870 5869 5869 5869 5868 5868 5867 5867 5867 5867 5867
5898 5897 5896 5895 5894 5893 5892 5891 5890 5888 5887 5886 5884 5883 5882 5881 5880 5878 5878 5877 5876 5875 5874 5873 5872 5871 5870 5869 5868 5868 5867 5867 5866 5866 5866 5865 5865 5865 5864 5864 5864 5864 5864
5894 5894 5893 5892 5890 5889 5888 5887 5886 5885 5884 5882 5881 5880 5878 5877 5876 5874 5874 5873 5872 5871 5870 5869 5868 5867 5866 5865 5864 5864 5863 5863 5862 5862 5862 5861 5861 5861 5861 5861 5861 5861 5861
5891 5890 5889 5888 5887 5886 5884 5883 5882 5881 5880 5878 5877 5876 5874 5873 5871 5870 5869 5868 5868 5867 5866 5865 5863 5862 5861 5861 5860 5859 5859 5858 5858 5858 5858 5857 5857 5857 5857 5856 5857 5857 5857
5887 5886 5885 5884 5882 5881 5880 5879 5878 5877 5876 5874 5873 5871 5870 5868 5867 5866 5865 5864 5863 5862 5861 5860 5858 5858 5857 5856 5855 5854 5854 5853 5853 5853 5853 5853 5852 5852 5852 5852 5853 5853 5853
5883 5883 5881 5880 5878 5877 5876 5875 5873 5872 5871 5869 5868 5866 5865 5863 5862 5861 5860 5859 5858 5857 5856 5855 5854 5853 5852 5851 5850 5849 5849 5848 5848 5848 5847 5847 5847 5847 5847 5848 5848 5849 5849
5879 5878 5877 5875 5873 5872 5870 5869 5868 5867 5866 5864 5862 5861 5860 5859 5857 5856 5855 5854 5853 5852 5851 5850 5849 5848 5847 5846 5846 5845 5844 5843 5843 5842 5841 5841 5842 5842 5842 5843 5843 5844 5844
5874 5873 5871 5870 5868 5867 5866 5865 5863 5861 5860 5858 5857 5856 5854 5853 5852 5850 5849 5848 5847 5846 5845 5844 5844 5842 5842 5841 5840 5839 5838 5837 5837 5837 5836 5836 5836 5836 5836 5837 5838 5838 5839
5868 5867 5865 5864 5863 5862 5861 5859 5857 5856 5855 5853 5852 5850 5849 5847 5845 5844 5843 5842 5841 5840 5839 5838 5837 5837 5836 5835 5834 5833 5833 5832 5831 5831 5831 5830 5830 5830 5830 5830 5831 5832 5833
5862 5861 5860 5859 5858 5856 5855 5854 5852 5851 5849 5848 5846 5845 5843 5841 5839 5838 5837 5836 5834 5833 5833 5832 5831 5830 5830 5829 5828 5827 5826 5826 5825 5824 5824 5824 5823 5824 5824 5824 5825 5826 5826
5857 5857 5856 5854 5853 5851 5850 5849 5847 5845 5843 5842 5841 5839 5836 5834 5832 5831 5830 5829 5828 5826 5826 5825 5824 5823 5822 5822 5821 5820 5819 5819 5818 5817 5817 5817 5817 5817 5818 5818 5818 5819 5820
5853 5852 5850 5849 5847 5845 5844 5842 5841 5839 5837 5836 5834 5833 5830 5828 5827 5825 5823 5822 5821 5819 5818 5817 5817 5815 5815 5814 5814 5813 5812 5812 5811 5810 5810 5809 5810 5810 5811 5811 5812 5813 5813
5848 5846 5845 5843 5841 5839 5838 5836 5834 5833 5831 5829 5828 5826 5824 5822 5820 5818 5816 5815 5813 5812 5811 5809 5808 5807 5807 5806 5806 5805 5805 5804 5803 5803 5802 5802 5802 5803 5803 5804 5805 5806 5806
5842 5840 5839 5837 5835 5833 5831 5830 5828 5826 5824 5823 5821 5819 5817 5815 5813 5811 5809 5807 5805 5804 5802 5801 5800 5799 5798 5797 5797 5796 5796 5796 5795 5795 5794 5794 5795 5795 5795 5796 5797 5798 5799
5836 5834 5832 5830 5829 5827 5825 5823 5821 5819 5817 5816 5813 5811 5809 5807 5804 5803 5801 5799 5797 5796 5794 5793 5792 5791 5790 5789 5788 5788 5787 5787 5787 5787 5786 5786 5786 5787 5787 5788 5789 5791 5792
5830 5828 5826 5824 5822 5820 5818 5816 5814 5812 5810 5808 5806 5803 5801 5799 5797 5794 5792 5790 5789 5787 5786 5785 5783 5782 5781 5780 5779 5778 5778 5778 5778 5779 5778 5778 5778 5778 5779 5780 5782 5783 5784
5824 5821 5819 5817 5815 5813 5811 5809 5807 5805 5803 5800 5798 5795 5793 5790 5788 5785 5784 5782 5780 5779 5777 5776 5775 5774 5772 5772 5771 5770 5769 5768 5768 5769 5770 5770 5770 5770 5770 5772 5773 5774 5776
5818 5816 5813 5811 5808 5806 5804 5802 5800 5798 5795 5793 5790 5787 5785 5783 5780 5778 5776 5774 5772 5770 5769 5768 5767 5765 5764 5763 5762 5761 5760 5760 5759 5759 5760 5760 5761 5761 5762 5762 5764 5765 5767